Location: Clyde
(45.1830°S, 169.3170°E)
Time: 04:26:57
(UTC+13:00)

MetOp-B - Pass Details

Date: 24 January 2019
Orbit: 820 x 820 km, 98.7° (Epoch: 18 February)

Event Time Altitude Azimuth Distance (km) Brightness Sun altitude
Rises 23:15:06 0° 163° (SSE) 3,394 7.8 -16.1°
Reaches altitude 10° 23:17:31 10° 158° (SSE) 2,454 7.0 -16.3°
Maximum altitude 23:22:53 57° 79° (E) 972 4.2 -16.9°
Enters shadow 23:25:58 25° 9° (N) 1,622 5.2 -17.3°
